ARG1733 SAAP-SABE

Flight info

Callsign ARG1733
Flight time 0h 37m
Altitude 27000
Route ESKAD DCT VANAR DCT MUPER
Aircraft E190/M-SDE3GILORVW/S

Departure

Time 2026-04-15 14:08
Airport General Urquiza Airport (SAAP)

Arrival

Time 2026-04-15 14:45
Airport Aeroparque Jorge Newbery (SABE)
Time Latitude Longitude Altitude Speed Heading
2026-04-15 13:48 -31.78990 -60.48322 253 ft 0 kts 281°
2026-04-15 14:03 -31.78982 -60.48336 253 ft 3 kts 344°
2026-04-15 14:03 -31.78966 -60.48313 253 ft 6 kts 75°
2026-04-15 14:03 -31.78938 -60.48289 253 ft 7 kts 13°
2026-04-15 14:03 -31.78908 -60.48273 253 ft 4 kts 81°
2026-04-15 14:04 -31.78913 -60.48235 253 ft 6 kts 99°
2026-04-15 14:04 -31.78914 -60.48176 253 ft 7 kts 49°
2026-04-15 14:04 -31.78862 -60.48156 253 ft 9 kts
2026-04-15 14:04 -31.78789 -60.48144 253 ft 13 kts
2026-04-15 14:05 -31.78688 -60.48127 253 ft 17 kts
2026-04-15 14:05 -31.78580 -60.48108 253 ft 12 kts 12°
2026-04-15 14:05 -31.78534 -60.48034 253 ft 13 kts 84°
2026-04-15 14:05 -31.78547 -60.47956 253 ft 9 kts 102°
2026-04-15 14:06 -31.78559 -60.47889 253 ft 3 kts 105°
2026-04-15 14:06 -31.78567 -60.47883 253 ft 1 kts 179°
2026-04-15 14:06 -31.78569 -60.47883 253 ft 0 kts 188°
2026-04-15 14:07 -31.78573 -60.47884 253 ft 0 kts 188°
2026-04-15 14:07 -31.78778 -60.47920 253 ft 74 kts 188°
2026-04-15 14:07 -31.79530 -60.48049 261 ft 140 kts 188°
2026-04-15 14:08 -31.80546 -60.48227 899 ft 154 kts 185°
2026-04-15 14:08 -31.81672 -60.48466 1566 ft 175 kts 175°
2026-04-15 14:08 -31.82863 -60.48371 2453 ft 171 kts 152°
2026-04-15 14:08 -31.84013 -60.47837 3200 ft 190 kts 149°
2026-04-15 14:09 -31.85367 -60.47211 3521 ft 232 kts 152°
2026-04-15 14:09 -31.87014 -60.46491 3930 ft 267 kts 154°
2026-04-15 14:09 -31.88793 -60.45755 4919 ft 274 kts 157°
2026-04-15 14:09 -31.90608 -60.45018 6042 ft 278 kts 157°
2026-04-15 14:10 -31.92466 -60.44255 7009 ft 287 kts 157°
2026-04-15 14:10 -31.94349 -60.43435 8047 ft 292 kts 156°
2026-04-15 14:10 -31.96282 -60.42562 9044 ft 299 kts 156°
2026-04-15 14:10 -31.98240 -60.41682 9997 ft 305 kts 156°
2026-04-15 14:11 -32.00248 -60.40797 10960 ft 309 kts 156°
2026-04-15 14:11 -32.02271 -60.39921 11978 ft 311 kts 157°
2026-04-15 14:11 -32.04334 -60.39033 12761 ft 323 kts 157°
2026-04-15 14:11 -32.06521 -60.38089 13131 ft 345 kts 157°
2026-04-15 14:12 -32.08775 -60.37118 13864 ft 352 kts 158°
2026-04-15 14:12 -32.11082 -60.36126 14770 ft 354 kts 158°
2026-04-15 14:12 -32.13410 -60.35124 15648 ft 357 kts 158°
2026-04-15 14:12 -32.15755 -60.34111 16416 ft 362 kts 158°
2026-04-15 14:13 -32.18147 -60.33078 17144 ft 367 kts 157°
2026-04-15 14:13 -32.20553 -60.32036 17891 ft 371 kts 157°
2026-04-15 14:13 -32.22996 -60.30977 18615 ft 374 kts 157°
2026-04-15 14:13 -32.25455 -60.29910 19279 ft 379 kts 157°
2026-04-15 14:14 -32.27942 -60.28831 19898 ft 384 kts 157°
2026-04-15 14:14 -32.30472 -60.27733 20502 ft 389 kts 157°
2026-04-15 14:14 -32.33031 -60.26622 21087 ft 394 kts 157°
2026-04-15 14:14 -32.35617 -60.25501 21675 ft 398 kts 156°
2026-04-15 14:15 -32.38227 -60.24368 22309 ft 400 kts 156°
2026-04-15 14:15 -32.40824 -60.23239 22915 ft 402 kts 157°
2026-04-15 14:15 -32.43469 -60.22088 23421 ft 407 kts 155°
2026-04-15 14:15 -32.46143 -60.20924 23937 ft 411 kts 156°
2026-04-15 14:16 -32.48831 -60.19753 24479 ft 414 kts 155°
2026-04-15 14:16 -32.51547 -60.18569 25007 ft 417 kts 155°
2026-04-15 14:16 -32.54283 -60.17373 25443 ft 422 kts 156°
2026-04-15 14:16 -32.57061 -60.16158 25772 ft 430 kts 156°
2026-04-15 14:17 -32.59910 -60.14911 26061 ft 439 kts 156°
2026-04-15 14:17 -32.62797 -60.13649 26401 ft 445 kts 155°
2026-04-15 14:17 -32.65233 -60.12582 26673 ft 451 kts 155°
2026-04-15 14:17 -32.68098 -60.11042 26818 ft 448 kts 145°
2026-04-15 14:18 -32.70632 -60.09078 26877 ft 424 kts 142°
2026-04-15 14:18 -32.73026 -60.07160 26879 ft 406 kts 141°
2026-04-15 14:18 -32.75330 -60.05295 26900 ft 400 kts 141°
2026-04-15 14:18 -32.77655 -60.03400 26915 ft 408 kts 141°
2026-04-15 14:19 -32.79975 -60.01512 26919 ft 398 kts 141°
2026-04-15 14:19 -32.82230 -59.99684 26916 ft 393 kts 142°
2026-04-15 14:19 -32.84541 -59.97805 26919 ft 408 kts 142°
2026-04-15 14:19 -32.86905 -59.95882 26848 ft 415 kts 142°
2026-04-15 14:20 -32.89302 -59.93937 26631 ft 419 kts 143°
2026-04-15 14:20 -32.91717 -59.91982 26388 ft 420 kts 143°
2026-04-15 14:20 -32.94125 -59.90036 26139 ft 416 kts 143°
2026-04-15 14:20 -32.96507 -59.88115 25891 ft 410 kts 142°
2026-04-15 14:21 -32.98835 -59.86240 25643 ft 400 kts 142°
2026-04-15 14:21 -33.01106 -59.84409 25392 ft 389 kts 142°
2026-04-15 14:21 -33.03330 -59.82615 25138 ft 381 kts 142°
2026-04-15 14:21 -33.05512 -59.80850 24882 ft 379 kts 143°
2026-04-15 14:22 -33.07721 -59.79058 24631 ft 390 kts 143°
2026-04-15 14:22 -33.09993 -59.77211 24384 ft 399 kts 142°
2026-04-15 14:22 -33.12296 -59.75340 24133 ft 402 kts 143°
2026-04-15 14:22 -33.14611 -59.73460 23883 ft 401 kts 143°
2026-04-15 14:23 -33.16905 -59.71602 23633 ft 396 kts 143°
2026-04-15 14:23 -33.19167 -59.69771 23381 ft 388 kts 143°
2026-04-15 14:23 -33.21379 -59.67979 23130 ft 381 kts 142°
2026-04-15 14:23 -33.23563 -59.66206 22876 ft 379 kts 143°
2026-04-15 14:24 -33.25759 -59.64419 22625 ft 384 kts 143°
2026-04-15 14:24 -33.27950 -59.62634 22380 ft 389 kts 143°
2026-04-15 14:24 -33.30214 -59.60789 22128 ft 388 kts 143°
2026-04-15 14:24 -33.32434 -59.58979 21877 ft 384 kts 144°
2026-04-15 14:25 -33.34604 -59.57210 21630 ft 380 kts 144°
2026-04-15 14:25 -33.36773 -59.55441 21379 ft 376 kts 144°
2026-04-15 14:25 -33.38914 -59.53695 21126 ft 364 kts 144°
2026-04-15 14:25 -33.41005 -59.51988 20875 ft 370 kts 142°
2026-04-15 14:26 -33.43154 -59.50228 20631 ft 379 kts 142°
2026-04-15 14:26 -33.45312 -59.48415 20381 ft 376 kts 141°
2026-04-15 14:26 -33.47426 -59.46603 20130 ft 369 kts 141°
2026-04-15 14:26 -33.49495 -59.44816 19877 ft 362 kts 141°
2026-04-15 14:27 -33.51525 -59.43057 19625 ft 359 kts 141°
2026-04-15 14:27 -33.53545 -59.41304 19375 ft 359 kts 141°
2026-04-15 14:27 -33.55580 -59.39536 19125 ft 361 kts 141°
2026-04-15 14:27 -33.57611 -59.37771 18877 ft 361 kts 141°
2026-04-15 14:28 -33.59638 -59.36011 18626 ft 356 kts 141°
2026-04-15 14:28 -33.61633 -59.34280 18375 ft 351 kts 141°
2026-04-15 14:28 -33.63632 -59.32598 18124 ft 355 kts 143°
2026-04-15 14:28 -33.65722 -59.30936 17877 ft 362 kts 143°
2026-04-15 14:29 -33.67799 -59.29263 17627 ft 357 kts 143°
2026-04-15 14:29 -33.69832 -59.27619 17375 ft 348 kts 142°
2026-04-15 14:29 -33.71819 -59.26009 17075 ft 342 kts 142°
2026-04-15 14:29 -33.73783 -59.24415 16714 ft 338 kts 142°
2026-04-15 14:30 -33.75702 -59.22812 16384 ft 333 kts 141°
2026-04-15 14:30 -33.77564 -59.21196 16055 ft 330 kts 141°
2026-04-15 14:30 -33.79396 -59.19583 15653 ft 330 kts 141°
2026-04-15 14:30 -33.81240 -59.17949 15252 ft 328 kts 141°
2026-04-15 14:31 -33.83065 -59.16330 14852 ft 324 kts 141°
2026-04-15 14:31 -33.84872 -59.14726 14450 ft 321 kts 141°
2026-04-15 14:31 -33.86662 -59.13137 14049 ft 318 kts 141°
2026-04-15 14:31 -33.88428 -59.11570 13650 ft 315 kts 141°
2026-04-15 14:32 -33.90191 -59.10007 13249 ft 313 kts 140°
2026-04-15 14:32 -33.91943 -59.08453 12847 ft 310 kts 140°
2026-04-15 14:32 -33.93671 -59.06919 12448 ft 307 kts 141°
2026-04-15 14:32 -33.95382 -59.05401 12047 ft 304 kts 140°
2026-04-15 14:33 -33.97074 -59.03900 11659 ft 300 kts 140°
2026-04-15 14:33 -33.98738 -59.02424 11284 ft 296 kts 140°
2026-04-15 14:33 -34.00364 -59.00980 10912 ft 292 kts 140°
2026-04-15 14:33 -34.01991 -58.99536 10537 ft 288 kts 140°
2026-04-15 14:34 -34.03598 -58.98109 10167 ft 285 kts 140°
2026-04-15 14:34 -34.05180 -58.96703 9817 ft 281 kts 140°
2026-04-15 14:34 -34.06751 -58.95307 9465 ft 278 kts 140°
2026-04-15 14:34 -34.08290 -58.93940 9189 ft 272 kts 140°
2026-04-15 14:35 -34.09800 -58.92598 8934 ft 267 kts 139°
2026-04-15 14:35 -34.11297 -58.91267 8682 ft 268 kts 139°
2026-04-15 14:35 -34.12818 -58.89910 8435 ft 275 kts 139°
2026-04-15 14:35 -34.14370 -58.88522 8188 ft 279 kts 139°
2026-04-15 14:36 -34.15930 -58.87129 7938 ft 279 kts 139°
2026-04-15 14:36 -34.17484 -58.85744 7687 ft 276 kts 139°
2026-04-15 14:36 -34.19011 -58.84384 7436 ft 272 kts 139°
2026-04-15 14:36 -34.20524 -58.83036 7185 ft 268 kts 139°
2026-04-15 14:37 -34.22019 -58.81703 6933 ft 266 kts 139°
2026-04-15 14:37 -34.23503 -58.80379 6683 ft 264 kts 139°
2026-04-15 14:37 -34.24984 -58.79056 6432 ft 264 kts 139°
2026-04-15 14:37 -34.26436 -58.77757 6187 ft 264 kts 138°
2026-04-15 14:38 -34.27911 -58.76437 5937 ft 263 kts 138°
2026-04-15 14:38 -34.29379 -58.75123 5686 ft 261 kts 138°
2026-04-15 14:38 -34.30834 -58.73821 5436 ft 260 kts 138°
2026-04-15 14:38 -34.32281 -58.72527 5185 ft 257 kts 138°
2026-04-15 14:39 -34.33233 -58.71675 5019 ft 256 kts 138°
2026-04-15 14:39 -34.34068 -58.70928 4873 ft 255 kts 138°
2026-04-15 14:39 -34.35978 -58.69218 4536 ft 253 kts 138°
2026-04-15 14:39 -34.36921 -58.68374 4369 ft 252 kts 138°
2026-04-15 14:40 -34.38326 -58.67114 4119 ft 251 kts 139°
2026-04-15 14:40 -34.39728 -58.65857 3854 ft 251 kts 139°
2026-04-15 14:40 -34.41132 -58.64596 3555 ft 252 kts 139°
2026-04-15 14:40 -34.42538 -58.63335 3285 ft 250 kts 139°
2026-04-15 14:41 -34.43869 -58.62027 3167 ft 239 kts 131°
2026-04-15 14:41 -34.44954 -58.60619 3100 ft 218 kts 129°
2026-04-15 14:41 -34.45912 -58.59305 3052 ft 199 kts 123°
2026-04-15 14:41 -34.46657 -58.57984 3051 ft 187 kts 117°
2026-04-15 14:42 -34.47317 -58.56651 2959 ft 183 kts 120°
2026-04-15 14:42 -34.48067 -58.55408 2808 ft 181 kts 122°
2026-04-15 14:42 -34.48800 -58.54168 2588 ft 182 kts 121°
2026-04-15 14:42 -34.49554 -58.52899 2283 ft 187 kts 126°
2026-04-15 14:43 -34.50289 -58.51630 1894 ft 182 kts 123°
2026-04-15 14:43 -34.50998 -58.50381 1498 ft 177 kts 122°
2026-04-15 14:43 -34.51674 -58.49178 1228 ft 168 kts 122°
2026-04-15 14:43 -34.52336 -58.48062 1048 ft 157 kts 123°
2026-04-15 14:44 -34.52886 -58.46987 899 ft 145 kts 121°
2026-04-15 14:44 -34.53451 -58.46030 779 ft 134 kts 124°
2026-04-15 14:44 -34.53937 -58.45086 578 ft 131 kts 123°
2026-04-15 14:44 -34.54468 -58.44191 380 ft 132 kts 126°
2026-04-15 14:45 -34.54978 -58.43266 178 ft 131 kts 123°
2026-04-15 14:45 -34.55477 -58.42370 38 ft 126 kts 124°
2026-04-15 14:45 -34.55902 -58.41615 28 ft 79 kts 124°
2026-04-15 14:45 -34.56094 -58.41270 28 ft 41 kts 123°
2026-04-15 14:46 -34.56182 -58.41101 28 ft 11 kts 109°
2026-04-15 14:46 -34.56173 -58.41027 28 ft 9 kts 64°
2026-04-15 14:46 -34.56153 -58.40983 28 ft 6 kts 50°
2026-04-15 14:46 -34.56110 -58.40997 28 ft 8 kts 306°
2026-04-15 14:47 -34.56076 -58.41050 28 ft 10 kts 308°
2026-04-15 14:47 -34.56027 -58.41126 28 ft 14 kts 308°
2026-04-15 14:47 -34.55976 -58.41206 28 ft 4 kts 307°
2026-04-15 14:47 -34.55951 -58.41245 28 ft 7 kts 307°
2026-04-15 14:48 -34.55912 -58.41299 28 ft 10 kts 340°
2026-04-15 14:48 -34.55862 -58.41285 28 ft 6 kts 32°
2026-04-15 14:48 -34.55829 -58.41291 28 ft 5 kts 302°
2026-04-15 14:48 -34.55810 -58.41327 28 ft 7 kts 302°
2026-04-15 14:49 -34.55781 -58.41382 28 ft 8 kts 303°
2026-04-15 14:49 -34.55747 -58.41446 28 ft 8 kts 299°
2026-04-15 14:49 -34.55731 -58.41481 28 ft 5 kts 299°
2026-04-15 14:49 -34.55722 -58.41540 28 ft 9 kts 259°
2026-04-15 14:50 -34.55717 -58.41606 28 ft 3 kts 303°
2026-04-15 14:50 -34.55699 -58.41637 28 ft 6 kts 303°
2026-04-15 14:50 -34.55678 -58.41669 28 ft 3 kts 337°
2026-04-15 14:50 -34.55657 -58.41657 28 ft 5 kts 34°
2026-04-15 14:51 -34.55638 -58.41641 28 ft 0 kts 34°
2026-04-15 14:51 -34.55625 -58.41630 28 ft 3 kts 34°
2026-04-15 14:51 -34.55622 -58.41628 28 ft 0 kts 33°